Main page
METAR-TAF:

METAR-TAF

Airports :

Sarakhs Airport

Sarakhs, Iran

latitude: 36-30-04N, longitude: 061-03-54E, elevation: 288 m

Current weather observation

The report was made 33 minutes ago, at 00:00 UTC
Wind 8 kt from the West
Temperature 17°C
Humidity 42%
Pressure 1015 hPa

METAR: OIMC 240000Z AUTO 28008KT //// // ////// 17/04 Q1015

Time: 05:03 (00:33 UTC)


TAF: missing

Weather observations and forecasts of more than 4000 airports (METAR and TAF reports).

The available stations are represented by yellow and red dots on the map.

Hover mouse over dot to see the name of the station.

Then click to see weather observations and forecasts.

To change the map : click on the green buttons with a black cross to zoom in, on the green button with a dash to zoom out, or on the green arrows for adjacent maps.


METAR-TAF: